Location: Wheeling
(40.0640°N, 80.7210°W)
Time: 13:51:08
(UTC-04:00)

X-37B - Visible Passes

Search period start: 03 August 2021 00:00
Search period end: 13 August 2021 00:00
Orbit: 383 x 392 km, 45.0° (Epoch: 01 July)

Date Brightness Start Highest point End Pass type
(mag) Time Alt. Az. Time Alt. Az. Time Alt. Az.
03 Aug 3.0 03:48:41 19° E 03:48:41 19° E 03:49:51 10° E visible
03 Aug 1.3 05:20:57 14° W 05:23:30 48° NNW 05:26:37 10° ENE visible
04 Aug 0.6 04:25:04 74° NNW 04:25:04 74° NNW 04:28:16 10° ENE visible
05 Aug 3.5 03:29:11 15° ENE 03:29:11 15° ENE 03:29:53 10° ENE visible
05 Aug 1.8 05:01:28 17° WNW 05:03:29 37° N 05:06:30 10° ENE visible
06 Aug 1.8 04:05:35 41° NNE 04:05:35 41° NNE 04:08:08 10° ENE visible
06 Aug 2.2 05:39:08 10° WNW 05:42:03 31° N 05:44:58 10° ENE visible
07 Aug 4.0 03:09:44 10° ENE 03:09:44 10° ENE 03:09:47 10° ENE visible
07 Aug 2.2 04:42:01 21° NW 04:43:32 32° N 04:46:27 10° ENE visible
08 Aug 2.9 03:46:13 26° NE 03:46:13 26° NE 03:48:01 10° ENE visible
08 Aug 2.1 05:19:07 10° WNW 05:22:06 35° N 05:25:04 10° ENE visible
09 Aug 2.2 04:22:47 27° NNW 04:23:34 31° N 04:26:30 10° ENE visible
10 Aug 3.7 03:27:12 15° NE 03:27:12 15° NE 03:27:58 10° ENE visible
10 Aug 1.7 04:59:30 13° WNW 05:02:06 44° NNE 05:05:11 10° E visible
11 Aug 2.3 04:04:06 33° NNE 04:04:06 33° NNE 04:06:36 10° ENE visible
11 Aug 0.5 05:37:15 10° WNW 05:40:26 75° SSW 05:43:38 10° ESE visible
12 Aug 0.9 04:41:16 44° NW 04:42:04 66° NNE 04:45:14 10° ESE visible
